Find Starlink 30983

NORAD ID: 58514 Int'l Des: 2023-191 Owner: SPXS Country: US Constellation: starlink operational
LEOCIRCULAR

リアルタイム位置

3D地球を読み込み中...

Starlink 30983について

説明を読み込み中...

次回通過

Passes for default location (London). Set your location on the main map for personalized predictions.

高度履歴

Loading altitude history...

軌道要素

1 58514U 23191G 26122.38922666 -.00001033 00000-0 -28037-4 0 9997
2 58514 42.9990 160.1943 0001473 271.8729 88.1954 15.27577533133336
Epoch: May 2, 2026 • Age: 17 hours

現在のステータス

高度 484.0 km
速度 7.62 km/s
衛星直下点 -7.56°S, 95.46°E
打ち上げ日 Dec 7, 2023
運用期間 2.4 years
タイプ internet

技術仕様

分類 Payload
質量 730.00 kg
乾燥質量 700.00 kg
総質量 730.00 kg
長さ 0.30 m
直径 4.10 m
スパン 29.00 m
形状 Box + pan
製造者 SPXS
バスタイプ Starlink V2M
フェーズステータス In Orbit
所有者/国 SPXS/US

Most Searched